Weather History for Shelbyville, IN

Change the Weather History Date:

Sunday, October 7, 2012

  Actual Average Record
Temperature  
Mean Temperature 43 °F 57 °F  
Max Temperature 51 °F 69 °F 91 °F (2007)
Min Temperature 34 °F 45 °F 30 °F (2000)
Degree Days  
Heating Degree Days 22 9  
Month to date heating degree days 65 56  
Since 1 July heating degree days 149 141  
Cooling Degree Days 0 1  
Month to date cooling degree days 2 7  
Year to date cooling degree days 1406 906  
Moisture  
Dew Point 33 °F    
Average Humidity 70    
Maximum Humidity 89    
Minimum Humidity 50    
Precipitation  
Precipitation 0.00 in 0.10 in 0.34 in (2008)
Month to date precipitation 1.24 0.78  
Year to date precipitation 23.91 34.23  
Sea Level Pressure  
Sea Level Pressure 30.16 in    
Wind  
Wind Speed 5 mph (WNW)    
Max Wind Speed 16 mph    
Max Gust Speed 18 mph    
Visibility 10 miles    
Events      
T = Trace of Precipitation, MM = Missing Value Source: NWS Daily Summary

Daily Weather History Graph

Daily Weather History Graph

Search for Another Location

Airport:

Trip Planner

Search our weather history database for the weather conditions in past years. The results will help you decide how hot, cold, wet, or windy it might be!

Date:

Astronomy

Oct. 07, 2012 Rise Set
Actual Time 7:45 AM EDT 7:15 PM EDT
Civil Twilight 7:18 AM EDT 7:42 PM EDT
Nautical Twilight 6:47 AM EDT 8:13 PM EDT
Astronomical Twilight 6:16 AM EDT 8:44 PM EDT
Moon No Moon Rise 2:21 PM EDT (10/7)
Length of Visible Light 12h 23m
Length of Day
11h 29m
Waning Gibbous, 56% of the Moon is Illuminated
Oct 7
Waning Gibbous
Oct 8
Last Quarter
Oct 15
New
Oct 21
First Quarter
Oct 29
Full

Hourly Weather History & Observations

Time (EDT) Temp. Windchill Dew Point Humidity Pressure Visibility Wind Dir Wind Speed Gust Speed Precip Events Conditions
12:53 AM 45.0 °F 42.6 °F 35.1 °F 68% 30.15 in 10.0 mi NW 4.6 mph - N/A   Overcast
1:53 AM 44.1 °F 42.5 °F 36.0 °F 73% 30.14 in 10.0 mi NW 3.5 mph - N/A   Overcast
2:53 AM 44.1 °F - 37.9 °F 79% 30.13 in 10.0 mi Calm Calm - N/A   Overcast
3:53 AM 43.0 °F 40.3 °F 36.0 °F 76% 30.13 in 10.0 mi NW 4.6 mph - N/A   Overcast
4:53 AM 43.0 °F 40.3 °F 36.0 °F 76% 30.12 in 10.0 mi NW 4.6 mph - N/A   Overcast
5:53 AM 42.1 °F 40.2 °F 35.1 °F 76% 30.12 in 10.0 mi NW 3.5 mph - N/A   Overcast
6:53 AM 42.1 °F 38.4 °F 35.1 °F 76% 30.13 in 10.0 mi NW 5.8 mph - N/A   Overcast
7:53 AM 41.0 °F - 35.1 °F 79% 30.13 in 10.0 mi Calm Calm - N/A   Mostly Cloudy
8:53 AM 42.1 °F 38.4 °F 34.0 °F 73% 30.16 in 10.0 mi WNW 5.8 mph - N/A   Overcast
9:53 AM 43.0 °F 38.8 °F 33.1 °F 68% 30.17 in 10.0 mi NW 6.9 mph - N/A   Overcast
10:53 AM 45.0 °F 41.8 °F 34.0 °F 65% 30.18 in 10.0 mi West 5.8 mph - N/A   Overcast
12:53 PM 48.0 °F - 32.0 °F 54% 30.18 in 10.0 mi NW 10.4 mph 16.1 mph N/A   Overcast
1:53 PM 48.0 °F - 32.0 °F 54% 30.17 in 10.0 mi West 13.8 mph - N/A   Overcast
2:53 PM 48.9 °F - 30.9 °F 50% 30.16 in 10.0 mi West 8.1 mph - N/A   Overcast
3:53 PM 48.0 °F - 30.9 °F 52% 30.16 in 10.0 mi West 8.1 mph - N/A   Overcast
4:53 PM 48.9 °F - 30.0 °F 48% 30.16 in 10.0 mi West 8.1 mph - N/A   Overcast
5:53 PM 48.0 °F - 30.0 °F 50% 30.16 in 10.0 mi West 6.9 mph - N/A   Overcast
6:53 PM 46.0 °F 43.9 °F 30.0 °F 54% 30.17 in 10.0 mi WNW 4.6 mph - N/A   Partly Cloudy
7:53 PM 45.0 °F - 32.0 °F 60% 30.17 in 10.0 mi Calm Calm - N/A   Mostly Cloudy
8:53 PM 39.9 °F - 33.1 °F 77% 30.19 in 10.0 mi Calm Calm - N/A   Clear
9:53 PM 39.0 °F - 30.9 °F 73% 30.19 in 10.0 mi Calm Calm - N/A   Clear
10:53 PM 35.1 °F - 32.0 °F 89% 30.19 in 10.0 mi Calm Calm - N/A   Clear
11:53 PM 35.1 °F - 32.0 °F 89% 30.20 in 10.0 mi Calm Calm - N/A   Clear